www.pogodaiklimat.ru

Погода и климат >> Архив погоды >> Австрия >> Цветль


ПОГОДА в Цветле

  • Прогноз погоды в Цветле
  • Монитор погоды в Цветле

АРХИВ ПОГОДЫ в Цветле

Время (UTC), дата Ветер
(напр.,м/с)
 
Видим.   Явления Облачность Т
(С)
Тd
(С)
f
(%)
Тe
(С)
Тes
(С)
Комфортность P
(гПа)
Po
(гПа)
Тmin
(С)
Tmax
(С)
R
(мм)
R24
(мм)
S
(см)
19 18.08 штиль 0 н/о н/о +18.3 +16.7 90 +19 +19 1011.0 953.6
20 18.08 штиль 0 н/о н/о +17.0 +15.8 93 +17 +17 1011.5 953.8
21 18.08 штиль 0 н/о н/о +16.0 +15.1 94 +16 +16 1011.7 953.8
22 18.08 штиль 0 н/о н/о +15.4 +14.7 96 +15 +15 1011.7 953.7
23 18.08 С 2 н/о н/о +14.9 +14.0 94 +15 +15 1011.3 953.2
00 19.08 штиль 0 н/о н/о +14.0 +13.2 95 +14 +14 1011.6 953.3
01 19.08 штиль 0 н/о н/о +13.6 +13.1 97 +13 +13 1011.8 953.4
02 19.08 ЮВ 1 н/о н/о +15.1 +13.4 90 +16 +16 1012.7 954.5
03 19.08 Ю 1 н/о н/о +15.1 +13.5 90 +16 +16 1013.6 955.4
04 19.08 ЮВ 1 н/о н/о +15.1 +13.7 91 +16 +16 1015.1 956.8
05 19.08 З 1 н/о н/о +19.7 +15.1 75 +23 +23 комфорт 1015.6 958.2
06 19.08 З 1 н/о н/о +19.9 +15.5 76 +23 +23 комфорт 1016.1 958.7 +13.5 +21.4
07 19.08 СЗ 1 н/о н/о +21.8 +13.5 59 +25 +25 комфорт 1015.8 958.7
08 19.08 СЗ 1 н/о н/о +21.2 +15.4 69 +24 +24 комфорт 1016.2 959.0
09 19.08 З 1 н/о н/о +23.0 +13.1 54 +26 +26 жарко 1015.9 959.0
10 19.08 З 1 н/о н/о +24.3 +14.2 53 +27 +27 жарко 1015.8 959.2
11 19.08 З 1 н/о н/о +25.6 +15.6 54 +29 +29 душно 1015.5 959.2
12 19.08 З 1 н/о н/о +25.6 +14.4 50 +28 +28 жарко 1015.5 959.2
13 19.08 З 1 н/о н/о +25.5 +14.9 52 +28 +28 жарко 1015.9 959.5
14 19.08 СЗ 3 н/о н/о +24.5 +14.9 55 +27 +27 жарко 1016.2 959.6
15 19.08 СЗ 1 н/о н/о +24.0 +15.9 61 +27 +27 жарко 1016.5 959.8
16 19.08 З 1 н/о н/о +24.0 +14.7 56 +27 +27 жарко 1016.3 959.6
17 19.08 штиль 0 н/о н/о +22.4 +13.8 58 +26 +26 жарко 1016.8 959.8 0.0
18 19.08 штиль 0 н/о н/о +19.9 +16.0 78 +22 +22 комфорт 1017.5 960.0 +19.8 +26.5 0.0
19 19.08 штиль 0 н/о н/о +18.7 +15.7 83 +20 +20 1018.9 961.1
20 19.08 штиль 0 н/о н/о +17.6 +15.5 87 +18 +18 1019.1 961.1
21 19.08 штиль 0 н/о н/о +16.0 +14.9 93 +16 +16 1019.8 961.4
22 19.08 штиль 0 н/о н/о +14.8 +14.0 95 +14 +14 1019.9 961.3
23 19.08 штиль 0 н/о н/о +14.3 +13.6 96 +14 +14 1020.2 961.4
00 20.08 штиль 0 н/о н/о +13.9 +13.2 96 +13 +13 1020.2 961.3
01 20.08 штиль 0 н/о н/о +13.4 +12.8 96 +13 +13 1020.4 961.4
02 20.08 штиль 0 н/о н/о +13.2 +12.6 96 +13 +13 1020.8 961.8
03 20.08 штиль 0 н/о н/о +12.7 +12.2 97 +12 +12 1021.0 961.8
04 20.08 штиль 0 н/о н/о +13.1 +12.7 97 +13 +13 1021.2 962.1
05 20.08 ЮВ 1 н/о н/о +14.5 +14.0 97 +15 +15 1021.1 962.3
06 20.08 штиль 0 н/о н/о +15.4 +14.5 94 +15 +15 1020.9 962.3 +12.3 +20.2
07 20.08 штиль 0 н/о н/о +17.4 +15.2 87 +17 +17 1020.1 962.0
08 20.08 штиль 0 н/о н/о +19.7 +15.6 77 +22 +22 комфорт 1019.5 961.9
09 20.08 В 1 н/о н/о +21.2 +16.0 72 +25 +25 комфорт 1019.4 962.1
10 20.08 В 1 н/о н/о +22.7 +15.7 65 +27 +27 душно 1018.8 961.8
11 20.08 Ю 1 н/о н/о +24.2 +15.8 59 +27 +27 жарко 1018.0 961.3 0.0
12 20.08 штиль 0 н/о н/о +24.3 +15.6 58 +27 +27 жарко 1017.6 960.9 0.0
13 20.08 В 1 н/о н/о +25.1 +16.0 57 +28 +28 жарко 1017.0 960.5
14 20.08 штиль 0 н/о н/о +25.0 +15.9 57 +28 +28 жарко 1016.8 960.3
15 20.08 СВ 1 н/о н/о +24.4 +16.4 61 +28 +28 душно 1016.6 960.0
16 20.08 штиль 0 н/о н/о +24.8 +16.7 61 +28 +28 жарко 1016.4 959.9
17 20.08 С 1 н/о н/о +22.9 +18.5 76 +29 +29 очень
душно
1016.5 959.7
18 20.08 С 1 н/о н/о +21.2 +18.6 85 +26 +26 душно 1016.7 959.6 +15.1 +26.0 0.0
19 20.08 штиль 0 н/о н/о +19.4 +17.8 90 +21 +21 комфорт 1017.5 960.0
20 20.08 штиль 0 н/о н/о +18.8 +17.3 91 +20 +20 1017.8 960.1
21 20.08 З 1 н/о н/о +19.1 +17.3 89 +22 +22 комфорт 1017.9 960.3
22 20.08 З 2 н/о н/о +17.9 +16.4 91 +18 +18 1020.2 962.2 6
23 20.08 З 2 н/о в посл. час осадки н/о +16.8 +15.6 93 +17 +17 1021.2 962.9 0.2
00 21.08 З 1 н/о {ливн. осадки} н/о +14.5 +13.4 93 +15 +15 1022.6 963.7 6
01 21.08 З 2 н/о н/о +14.1 +12.8 92 +14 +14 1024.3 965.2 0.0
02 21.08 З 1 н/о н/о +13.9 +12.3 90 +14 +14 1025.2 966.0 0.0
03 21.08 З 1 н/о н/о +13.7 +11.9 89 +14 +14 1026.2 966.9 0.0
04 21.08 СЗ 1 н/о н/о +13.6 +11.9 89 +14 +14 1026.6 967.3
05 21.08 З 1 н/о н/о +13.6 +11.6 88 +14 +14 1027.2 967.8
06 21.08 СЗ 1 н/о н/о +13.7 +11.7 88 +14 +14 1028.1 968.7 +13.6 +21.3 6
07 21.08 З 1 н/о н/о +14.0 +11.9 87 +14 +14 1028.4 969.1
08 21.08 СЗ 1 н/о н/о +14.5 +11.4 82 +15 +15 1028.2 969.0
09 21.08 СЗ 1 н/о в посл. час осадки н/о +14.8 +11.9 83 +15 +15 1028.4 969.2 0.0
10 21.08 СЗ 1 н/о н/о +15.0 +11.5 80 +16 +16 1028.2 969.1
11 21.08 СЗ 1 н/о в посл. час осадки н/о +15.0 +12.0 82 +16 +16 1028.4 969.3 0.2
12 21.08 СЗ 1 н/о осадки {ливн. осадки} н/о +15.5 +12.2 81 +16 +16 1028.0 969.0 0.3
13 21.08 З 1 н/о н/о +16.4 +12.1 76 +17 +17 1027.7 968.9 0.0
14 21.08 штиль 0 н/о в посл. час осадки н/о +15.8 +14.0 89 +16 +16 1027.5 968.6 0.2
15 21.08 СЗ 1 н/о {осадки} н/о +17.4 +13.2 76 +18 +18 1027.2 968.6 0.2
16 21.08 СЗ 1 н/о н/о +17.4 +13.6 78 +18 +18 1027.1 968.5
17 21.08 СЗ 1 н/о н/о +17.4 +13.1 76 +18 +18 1027.1 968.5 0.0
18 21.08 штиль 0 н/о {осадки} н/о +14.4 +12.9 91 +14 +14 1027.6 968.4 +13.7 +18.7 0.5
19 21.08 штиль 0 н/о н/о +12.4 +11.6 95 +12 +12 1028.2 968.5
20 21.08 штиль 0 н/о н/о +11.4 +10.9 97 +11 +11 1028.8 968.9
21 21.08 штиль 0 н/о н/о +10.7 +10.2 97 +10 +10 1029.1 969.0
22 21.08 штиль 0 н/о н/о +9.7 +9.3 97 +9 +9 1029.3 969.0
23 21.08 штиль 0 н/о н/о +9.5 +9.1 97 +9 +9 1029.4 969.0
00 22.08 штиль 0 н/о н/о +8.7 +8.4 98 +8 +8 1029.0 968.5
01 22.08 штиль 0 н/о н/о +9.3 +9.0 98 +8 +8 1028.4 968.1
02 22.08 штиль 0 н/о н/о +8.5 +8.2 98 +7 +7 1028.3 967.8
03 22.08 штиль 0 н/о н/о +8.7 +8.4 98 +8 +8 1028.0 967.5
04 22.08 штиль 0 н/о н/о +9.2 +8.9 98 +8 +8 1027.9 967.6
05 22.08 штиль 0 н/о н/о +10.2 +9.8 97 +9 +9 1027.4 967.3
06 22.08 Ю 1 н/о н/о +11.2 +10.6 96 +11 +11 1027.4 967.5 +8.2 +14.7
07 22.08 штиль 0 н/о н/о +12.9 +12.0 94 +12 +12 1026.5 967.1
08 22.08 С 1 н/о н/о +14.3 +11.9 85 +15 +15 1026.0 966.9
09 22.08 СЗ 1 н/о н/о +15.5 +11.7 78 +16 +16 1025.8 966.9
10 22.08 штиль 0 н/о н/о +16.3 +12.3 77 +16 +16 1025.6 966.9
11 22.08 С 1 н/о н/о +16.8 +12.2 74 +18 +18 1025.4 966.8
12 22.08 штиль 0 н/о н/о +18.0 +12.6 71 +18 +18 1025.0 966.7
13 22.08 З 1 н/о н/о +18.5 +13.3 72 +20 +20 1024.6 966.4
14 22.08 З 1 н/о н/о +19.8 +13.6 67 +23 +23 комфорт 1024.1 966.2
15 22.08 СЗ 1 н/о н/о +20.2 +13.6 66 +23 +23 комфорт 1023.6 965.8
16 22.08 ЮВ 1 н/о н/о +21.0 +13.6 63 +25 +25 комфорт 1023.4 965.7
17 22.08 штиль 0 н/о н/о +18.7 +15.4 81 +20 +20 1023.7 965.6
18 22.08 штиль 0 н/о н/о +17.0 +15.0 88 +17 +17 1024.5 966.0 +11.0 +21.1
19 22.08 штиль 0 н/о н/о +16.6 +14.7 89 +16 +16 1025.5 966.9
20 22.08 СЗ 1 н/о н/о +16.4 +15.0 91 +17 +17 1026.0 967.3
21 22.08 штиль 0 н/о н/о +16.0 +14.8 93 +16 +16 1025.7 967.0
22 22.08 С 1 н/о н/о +15.9 +14.8 93 +17 +17 1025.9 967.1
23 22.08 штиль 0 н/о н/о +15.8 +14.8 94 +16 +16 1026.1 967.3
00 23.08 штиль 0 н/о н/о +15.8 +14.6 93 +16 +16 1025.9 967.1
01 23.08 С 1 н/о н/о +15.3 +14.5 95 +16 +16 1025.9 967.0
02 23.08 С 1 н/о н/о +13.9 +13.4 97 +14 +14 1026.3 967.1
03 23.08 СЗ 1 н/о н/о +13.5 +13.0 97 +14 +14 1026.6 967.3
04 23.08 штиль 0 н/о н/о +11.9 +11.5 97 +11 +11 1026.6 966.9
05 23.08 штиль 0 н/о н/о +11.7 +11.3 97 +11 +11 1027.1 967.4
06 23.08 штиль 0 н/о н/о +13.2 +12.7 97 +13 +13 1026.9 967.5 +11.4 +17.4
07 23.08 штиль 0 н/о н/о +15.7 +13.7 88 +15 +15 1026.5 967.6
08 23.08 штиль 0 н/о н/о +17.6 +14.0 79 +18 +18 1026.3 967.8
09 23.08 З 1 н/о н/о +19.3 +14.3 73 +22 +22 комфорт 1025.7 967.6
10 23.08 С 1 н/о н/о +20.9 +13.5 63 +25 +25 комфорт 1025.1 967.3
11 23.08 С 1 н/о н/о +21.7 +13.5 60 +24 +24 комфорт 1024.4 966.8 0.0
12 23.08 СЗ 2 н/о н/о +22.6 +13.5 56 +26 +26 жарко 1023.8 966.4 0.0
13 23.08 З 1 н/о н/о +23.0 +13.2 54 +26 +26 жарко 1023.3 966.0
14 23.08 штиль 0 н/о н/о +24.1 +14.0 53 +26 +26 жарко 1022.6 965.6
15 23.08 штиль 0 н/о н/о +24.0 +14.1 54 +26 +26 жарко 1021.9 964.9
16 23.08 ЮВ 1 н/о н/о +24.4 +14.9 55 +27 +27 жарко 1021.5 964.6
17 23.08 С 1 н/о н/о +21.4 +16.9 76 +25 +25 комфорт 1021.8 964.4
18 23.08 штиль 0 н/о н/о +18.3 +15.9 86 +19 +19 1022.9 964.8 +13.0 +25.0 0.0
19 23.08 штиль 0 н/о н/о +16.6 +15.5 93 +16 +16 1023.9 965.4
20 23.08 штиль 0 н/о н/о +15.6 +14.7 94 +15 +15 1024.1 965.4
21 23.08 штиль 0 н/о н/о +14.7 +14.0 96 +14 +14 1024.0 965.1
22 23.08 штиль 0 н/о н/о +14.0 +13.5 97 +14 +14 1023.8 964.8
23 23.08 С 1 н/о н/о +13.5 +12.9 96 +14 +14 1023.7 964.6
00 24.08 штиль 0 н/о н/о +13.1 +12.6 97 +13 +13 1023.5 964.3
01 24.08 штиль 0 н/о н/о +13.0 +12.5 97 +12 +12 1023.5 964.3 0.0
02 24.08 штиль 0 н/о н/о +12.9 +12.4 97 +12 +12 1023.6 964.3
04 24.08 штиль 0 н/о н/о +11.9 +11.6 98 +11 +11 1023.6 964.1
05 24.08 штиль 0 н/о н/о +12.1 +11.7 97 +11 +11 1023.2 963.8
06 24.08 штиль 0 н/о н/о +13.4 +12.9 97 +13 +13 1023.1 964.0 +11.8 +18.8 0.0
07 24.08 штиль 0 н/о н/о +16.6 +15.7 94 +16 +16 1022.1 963.7
08 24.08 В 1 н/о н/о +20.3 +16.7 80 +24 +24 комфорт 1021.1 963.5
09 24.08 штиль 0 н/о н/о +22.5 +17.5 73 +27 +27 душно 1020.5 963.4
10 24.08 ЮВ 1 н/о н/о +24.6 +17.9 66 +29 +29 душно 1019.9 963.2
11 24.08 ЮВ 1 н/о н/о +25.9 +17.6 60 +30 +30 душно 1019.1 962.7
12 24.08 ЮВ 1 н/о н/о +26.5 +17.4 57 +31 +31 душно 1018.7 962.4
13 24.08 ЮВ 1 н/о н/о +27.0 +16.9 54 +31 +31 душно 1018.3 962.1
14 24.08 ЮВ 1 н/о н/о +27.1 +17.5 56 +31 +31 душно 1018.1 962.0
15 24.08 Ю 2 н/о н/о +24.1 +17.8 68 +28 +28 душно 1018.8 962.1
16 24.08 СЗ 1 н/о н/о +22.0 +16.8 72 +26 +26 душно 1019.0 961.9
17 24.08 С 1 н/о н/о +21.6 +18.4 82 +26 +26 душно 1019.0 961.8
18 24.08 С 1 н/о н/о +19.9 +18.0 89 +24 +24 комфорт 1019.3 961.8 +13.1 +27.6
19 24.08 штиль 0 н/о н/о +18.0 +17.0 94 +18 +18 1020.1 962.1
20 24.08 штиль 0 н/о н/о +16.8 +16.0 95 +17 +17 1020.3 962.1
21 24.08 С 1 н/о н/о +16.5 +15.6 94 +17 +17 1020.4 962.1
22 24.08 штиль 0 н/о н/о +15.7 +14.9 95 +15 +15 1020.4 961.9
23 24.08 штиль 0 н/о н/о +15.4 +14.8 96 +15 +15 1020.5 962.0
00 25.08 ЮВ 1 н/о н/о +14.6 +14.1 97 +15 +15 1020.2 961.5
01 25.08 штиль 0 н/о н/о +13.9 +13.5 97 +13 +13 1020.4 961.5
02 25.08 СЗ 1 н/о н/о +14.1 +13.7 97 +14 +14 1020.6 961.8
03 25.08 штиль 0 н/о н/о +14.1 +13.7 97 +14 +14 1020.6 961.8
04 25.08 С 1 н/о н/о +14.4 +14.0 97 +15 +15 1020.6 961.8 0.0
05 25.08 С 1 н/о н/о +14.8 +14.4 97 +15 +15 1020.5 961.8
06 25.08 штиль 0 н/о н/о +16.0 +15.5 97 +16 +16 1020.2 961.8 +13.7 +20.1 0.0
07 25.08 С 1 н/о н/о +19.1 +16.8 87 +22 +22 комфорт 1019.8 962.1
08 25.08 В 1 н/о н/о +20.7 +15.7 73 +25 +25 комфорт 1020.1 962.6
09 25.08 ЮВ 1 н/о н/о +21.2 +16.0 72 +25 +25 комфорт 1019.8 962.4
10 25.08 В 1 н/о н/о +23.3 +16.2 64 +28 +28 душно 1019.0 962.1
11 25.08 ЮВ 3 н/о н/о +25.0 +15.3 55 +28 +28 жарко 1018.4 961.8
12 25.08 ЮВ 2 н/о н/о +25.3 +15.9 56 +29 +29 душно 1018.3 961.8
13 25.08 Ю 1 н/о н/о +25.3 +16.4 58 +29 +29 душно 1018.3 961.8
14 25.08 ЮВ 2 н/о н/о +24.6 +16.5 61 +28 +28 душно 1018.1 961.5
15 25.08 ЮВ 1 н/о н/о +24.5 +17.0 63 +28 +28 душно 1017.5 960.9
16 25.08 ЮВ 1 н/о н/о +23.3 +18.4 74 +29 +29 душно 1017.9 961.1
17 25.08 ЮВ 1 н/о н/о +21.9 +18.2 80 +27 +27 душно 1018.3 961.2

 

Местоположение метеостанции Цветль (Австрия): широта 48.62 долгота 15.20 высота над уровнем моря 506 м.

В архиве по умолчанию представлена погода в Цветле за последнюю неделю. Архивные данные за месяц целиком и за предыдущие месяцы, начиная с января 2011 года, Вы можете получить, выбрав интересующий диапазон дат из раскрывающегося списка и нажав кнопку "Ввод!".


*Определитесь, кто Вы:
робот инопланетянин человек

Внимание! Время в таблицах - всемирное. Для получения местного времени необходимо прибавить поправку, которая равна 1 ч.

Смотрите также архив погоды в соседних городах и на ближайших метеорологических станциях:

Погода в Аллентштайге (Австрия) (14 км)
Погода в Вайтре (Австрия) (25 км)
Погода в Бернкопфе (Австрия) (30 км)
Погода в Яуерлинге (Австрия) (34 км)
Погода в Гарс-ам-Кампе (Австрия) (35 км)
Погода в Кремс-ан-дер-Донау (Австрия) (38 км)
Погода в Личау (Австрия) (39 км)
Погода в Лангенлойсе (Австрия) (40 км)
Погода в Санкт-Пёльтене (Австрия) (56 км)
Погода в Реце (Австрия) (58 км)

Пояснения к столбцам:

Ветер - указаны скорость ветра в м/с - средняя за 10 мин, порывы в срок и между сроками (в фигурных скобках) и направление, откуда дует ветер: С - северный, СВ - северо-восточный, В - восточный, ЮВ - юго-восточный, Ю - южный, ЮЗ - юго-западный, З - западный, СЗ - северо-западный.
Видимость - горизонтальная дальность видимости в метрах или километрах. При видимости от 1 до 10 км при отсутствии осадков обычно наблюдается дымка, при ухудшении видимости до 1 км и менее - туман. В сухую погоду видимость может ухудшаться дымом, пылью или мглою.
Явления - указаны атмосферные явления, наблюдавшиеся в срок или в последний час перед сроком; фигурными скобками обозначены явления, наблюдавшиеся между сроками (за 1-3 часа до срока); квадратными скобками обозначены град или гололедные отложения с указанием их диаметра в мм.
Облачность - указаны через наклонную черту общая и нижняя облачность в баллах и высота нижней границы облаков в метрах; квадратными скобками обозначены формы облаков: Ci - перистые, Cs - перисто-слоистые, Cc - перисто-кучевые, Ac - высококучевые, As - высокослоистые, Sc - слоисто-кучевые, Ns - слоисто-дождевые, Cu - кучевые, Cb - кучево-дождевые. Подробнее классификацию облаков см. в Атласе облаков (PDF).
T - Температура воздуха - температура, измеренная на высоте 2 м над землей.
Td - Температура точки росы - температура, при понижении до которой содержащийся в воздухе водяной пар достигнет насыщения.
f - Относительная влажность воздуха - влажноcть воздуха, измеренная на высоте 2 м над землей.
Te - Эффективная температура - температура, которую ощущает одетый по сезону человек в тени. Характеристика душности погоды. При расчете учитывается влияние влажности воздуха и скорости ветра на теплоощущения человека.
Tes - Эффективная температура на солнце - температура, которую ощущает человек, с поправкой на солнечный нагрев. Характеристика знойности погоды. Зависит от высоты солнца над горизонтом, облачности и скорости ветра. Ночью, в пасмурную погоду, а также при ветре 12 м/с и более поправка равна нулю.
P - Атмосферное давление - приведенное к уровню моря атмосферное давление.
Po - Атмосферное давление - измеренное на уровне метеостанции атмосферное давление.
Tmin - Минимальная температура - минимум температуры воздуха на высоте 2 м над землей.
Tmax - Максимальная температура - максимум температуры воздуха на высоте 2 м над землей.
R - Количество осадков - Количество выпавших осадков за период времени, мм. При наведении курсора мыши на число - период времени, за который выпало указанное количество осадков.
R24 - Количество осадков - Количество выпавших осадков за 24 часа, мм.
S - Снежный покров - Высота снежного покрова, см. При наведении курсора мыши на число - состояние снежного покрова и степень покрытия местности в баллах.